Weather in San Diego

United States     32°42′56″N   117°09′16″W
temp.,
°C
wind,
m/s
gust,
m/s
humid.,
%
clouds,
%
prec.,
mm/h
press.,
hPa
HPBL,
m
7 may, fri
fri723:00+15w217845 0.0 1017409
02:00+15w117944 0.0 1016356
05:00+14wnw228047 0.0 1016412
08:00+15sse117427 0.0 1016435
11:00+16sw43718 0.0 1016503
14:00+16sw447223 0.0 1015546
17:00+17sw337222 0.0 1014569
20:00+16wsw337683 0.0 1014660
8 may, sat
sat823:00+16ssw227486 0.1 1014631
02:00+15ssw337397 0.1 1013705
05:00+15sse337076 0.1 1013788
08:00+15s44703 0.0 1014677
11:00+16ssw54693 0.0 1014619
14:00+16ssw55670 0.0 1013533
17:00+16ssw44700 0.0 1012527
20:00+16ssw33764 0.0 1013478
9 may, sun
sun923:00+16s34790 0.0 1013462
02:00+15s45790 0.0 1012457
05:00+15s458115 0.0 1012529
08:00+16s557757 0.0 1013652
11:00+17ssw667147 0.0 1013693
14:00+17ssw667110 0.0 1011602
17:00+17ssw667219 0.0 1010695
20:00+16s667792 0.0 1011746
10 may, mon
mon1023:00+16s787696 0.1 1011841
02:00+16sse787697 0.1 1010937
05:00+15sse6674100 0.3 1010904
08:00+16sse5673100 0.1 1012792
11:00+17ssw666924 0.1 1012750
14:00+17ssw66660 0.0 1011774
17:00+17ssw45680 0.0 1011678
20:00+16ssw44720 0.0 1012608
11 may, tue
tue1123:00+15ssw337516 0.0 1013568
02:00+15s33774 0.0 1012479
05:00+15sw11782 0.0 1012276
08:00+16sw117514 0.0 1014465
11:00+17wsw32691 0.0 1014516
14:00+17wsw43700 0.0 1014499
17:00+17wsw32700 0.0 1013484
20:00+17w22730 0.0 1014327